Roseburg, OR

1:32 AM PDT on May 26, 2018 (GMT -0700)
Roseburg Regional

Weather History for KRBG - January, 2014

Change the Weather History Date:

Wednesday, January 1, 2014

  Actual Average Record
Temperature  
Mean Temperature 37 °F 42 °F  
Max Temperature 40 °F 48 °F 64 °F (1939)
Min Temperature 33 °F 36 °F 17 °F (1942)
Degree Days  
Heating Degree Days 28 23  
Month to date heating degree days 28 23  
Since 1 July heating degree days 1811 1663  
Cooling Degree Days 0 0  
Month to date cooling degree days 0 0  
Year to date cooling degree days 0 0  
Moisture  
Dew Point 34 °F    
Average Humidity 96    
Maximum Humidity 100    
Minimum Humidity 92    
Precipitation  
Precipitation 0.00 in 0.23 in 1.31 in (2004)
Month to date precipitation 0.00 0.23  
Year to date precipitation 0.00 0.23  
Sea Level Pressure  
Sea Level Pressure 30.32 in    
Wind  
Wind Speed 1 mph (South)    
Max Wind Speed 7 mph    
Max Gust Speed 8 mph    
Visibility 2 miles    
Events Fog    
T = Trace of Precipitation, MM = Missing Value Source: NWS Daily Summary

Daily Weather History Graph

Daily Weather History Graph

Search for Another Location

Airport or City:

Astronomy

Jan. 01, 2014 Rise Set
Actual Time 7:45 AM PST 4:48 PM PST
Civil Twilight 7:13 AM PST 5:21 PM PST
Nautical Twilight 6:37 AM PST 5:57 PM PST
Astronomical Twilight 6:02 AM PST 6:31 PM PST
Moon 7:39 AM PST (1/1) 5:42 PM PST (1/1)
Length of Visible Light 10h 07m
Length of Day
9h 03m
New Moon, 0% of the Moon is Illuminated
Jan 1
New Moon
Jan 7
First Quarter
Jan 15
Full
Jan 23
Last Quarter
Jan 30
New

Hourly Weather History & Observations

Time (PST) Temp. Windchill Dew Point Humidity Pressure Visibility Wind Dir Wind Speed Gust Speed Precip Events Conditions
12:37 AM 34.0 °F - 32.0 °F 92% 30.33 in 5.0 mi Calm Calm - N/A   Scattered Clouds
12:45 AM 34.0 °F - 32.0 °F 92% 30.34 in 4.0 mi Calm Calm - N/A   Mostly Cloudy
12:53 AM 34.0 °F - 32.0 °F 92% 30.35 in 4.0 mi Calm Calm - N/A   Mostly Cloudy
1:16 AM 34.0 °F - 33.1 °F 96% 30.34 in 1.2 mi Calm Calm - N/A   Overcast
1:24 AM 34.0 °F - 33.1 °F 96% 30.34 in 0.5 mi Calm Calm - N/A Fog Fog
1:35 AM 34.0 °F - 34.0 °F 100% 30.34 in 0.2 mi Calm Calm - N/A Fog Fog
1:53 AM 34.0 °F - 34.0 °F 100% 30.35 in 0.2 mi Calm Calm - N/A Fog Fog
2:12 AM 34.0 °F - 34.0 °F 100% 30.34 in 0.2 mi Calm Calm - N/A Fog Fog
2:53 AM 34.0 °F 29.8 °F 33.1 °F 96% 30.36 in 0.2 mi ESE 4.6 mph - N/A Fog Fog
3:14 AM 34.0 °F - 34.0 °F 100% 30.35 in 0.2 mi Calm Calm - N/A Fog Fog
3:53 AM 34.0 °F - 33.1 °F 96% 30.37 in 0.2 mi Calm Calm - N/A Fog Fog
4:53 AM 34.0 °F - 34.0 °F 100% 30.37 in 0.2 mi Calm Calm - N/A Fog Fog
5:10 AM 34.0 °F - 34.0 °F 100% 30.35 in 0.2 mi Calm Calm - N/A Fog Fog
5:21 AM 34.0 °F - 34.0 °F 100% 30.35 in 0.2 mi Calm Calm - N/A Fog Fog
5:53 AM 34.0 °F 29.8 °F 33.1 °F 96% 30.37 in 0.2 mi SE 4.6 mph - N/A Fog Fog
6:05 AM 34.0 °F 29.8 °F 33.1 °F 96% 30.35 in 0.5 mi ESE 4.6 mph - N/A Fog Fog
6:13 AM 34.0 °F - 33.1 °F 96% 30.35 in 0.2 mi Calm Calm - N/A Fog Fog
6:32 AM 34.0 °F 29.8 °F 33.1 °F 96% 30.36 in 0.5 mi SSE 4.6 mph - N/A Fog Fog
6:53 AM 33.1 °F 27.7 °F 33.1 °F 100% 30.37 in 0.5 mi SSE 5.8 mph - N/A Fog Fog
7:31 AM 33.1 °F - 33.1 °F 100% 30.36 in 0.2 mi Calm Calm - N/A Fog Fog
7:49 AM 33.8 °F - 33.8 °F 100% 30.36 in 0.5 mi Calm Calm - N/A Fog Fog
7:53 AM 33.1 °F - 33.1 °F 100% 30.38 in 0.5 mi Calm Calm - N/A Fog Fog
8:08 AM 33.1 °F - 33.1 °F 100% 30.36 in - Calm Calm - N/A   Overcast
8:53 AM 33.1 °F - 33.1 °F 100% 30.38 in - Calm Calm - N/A   Overcast
9:53 AM 33.1 °F - 33.1 °F 100% 30.38 in - Calm Calm - N/A   Overcast
10:45 AM 35.1 °F 32.2 °F 34.0 °F 96% 30.35 in 0.5 mi SE 3.5 mph - N/A Fog Fog
10:53 AM 35.1 °F - 34.0 °F 96% 30.37 in 0.5 mi Calm Calm - N/A Fog Fog
11:05 AM 35.1 °F - 34.0 °F 96% 30.35 in 1.5 mi Calm Calm - N/A   Overcast
11:14 AM 35.1 °F - 34.0 °F 96% 30.34 in 2.5 mi Calm Calm - N/A   Overcast
11:26 AM 36.0 °F - 35.1 °F 97% 30.33 in 3.0 mi Calm Calm - N/A   Overcast
11:46 AM 35.1 °F - 34.0 °F 96% 30.33 in 1.8 mi Calm Calm - N/A   Overcast
11:53 AM 35.1 °F - 35.1 °F 100% 30.35 in - Calm Calm - N/A   Overcast
12:12 PM 36.0 °F - 35.1 °F 97% 30.32 in 2.0 mi Calm Calm - N/A   Overcast
12:22 PM 36.0 °F - 35.1 °F 97% 30.31 in 5.0 mi Calm Calm - N/A   Overcast
12:53 PM 37.0 °F - 35.1 °F 93% 30.32 in 7.0 mi Calm Calm - N/A   Overcast
1:53 PM 37.9 °F - 36.0 °F 93% 30.30 in 8.0 mi Calm Calm - N/A   Overcast
2:53 PM 39.0 °F 35.7 °F 37.0 °F 93% 30.29 in 5.0 mi SW 4.6 mph - N/A   Overcast
3:33 PM 37.9 °F 35.5 °F 36.0 °F 93% 30.27 in 3.0 mi SSW 3.5 mph - N/A   Scattered Clouds
3:40 PM 37.9 °F 33.5 °F 36.0 °F 93% 30.27 in 2.5 mi SW 5.8 mph - N/A   Partly Cloudy
3:49 PM 37.4 °F 32.8 °F 35.6 °F 93% 30.27 in 1.8 mi SW 5.8 mph - N/A   Mostly Cloudy
3:53 PM 37.0 °F 34.5 °F 36.0 °F 96% 30.29 in 1.2 mi SW 3.5 mph - N/A   Mostly Cloudy
4:02 PM 37.0 °F - 37.0 °F 100% 30.27 in 0.5 mi Calm Calm - N/A Fog Fog
4:27 PM 37.9 °F - 37.0 °F 97% 30.27 in 1.2 mi Calm Calm - N/A   Overcast
4:51 PM 37.4 °F 34.9 °F 37.4 °F 100% 30.28 in 2.0 mi SSW 3.5 mph - N/A   Overcast
4:53 PM 37.9 °F - 37.0 °F 97% 30.30 in 2.0 mi Calm Calm - N/A   Overcast
5:16 PM 37.9 °F - 37.0 °F 97% 30.27 in 4.0 mi Calm Calm - N/A   Overcast
5:53 PM 37.0 °F - 36.0 °F 96% 30.30 in 3.0 mi Calm Calm - N/A   Mostly Cloudy
6:10 PM 37.0 °F 34.5 °F 36.0 °F 96% 30.28 in 2.5 mi WSW 3.5 mph - N/A   Overcast
6:38 PM 37.0 °F - 36.0 °F 96% 30.28 in 1.8 mi Calm Calm - N/A   Overcast
6:53 PM 37.0 °F - 36.0 °F 96% 30.30 in 0.8 mi Calm Calm - N/A   Overcast
7:04 PM 37.0 °F - 36.0 °F 96% 30.28 in 0.2 mi Calm Calm - N/A Fog Fog
7:41 PM 36.0 °F - 36.0 °F 100% 30.28 in 0.2 mi Calm Calm - N/A Fog Fog
7:53 PM 36.0 °F - 36.0 °F 100% 30.30 in 0.2 mi Calm Calm - N/A Fog Fog
8:53 PM 35.1 °F - 35.1 °F 100% 30.30 in 0.2 mi Calm Calm - N/A Fog Fog
9:53 PM 34.0 °F - 34.0 °F 100% 30.30 in 0.2 mi Calm Calm - N/A Fog Fog
10:53 PM 34.0 °F - 34.0 °F 100% 30.29 in 0.2 mi Calm Calm - N/A Fog Fog
11:39 PM 34.0 °F - 34.0 °F 100% 30.28 in 0.2 mi Calm Calm - N/A Fog Fog
11:53 PM 34.0 °F - 33.1 °F 96% 30.29 in 0.2 mi Calm Calm - N/A Fog Fog